Location: Bezawada
(16.5136°N, 80.6297°E)
Time: 09:36:54
(UTC+00:00)

Hubble Space Telescope - Pass Details

Date: 27 February 2020
Orbit: 536 x 540 km, 28.5° (Epoch: 08 April)

Event Time Altitude Azimuth Distance (km) Brightness Sun altitude
Rises 14:36:31 0° 304° (NW) 2,673 5.1 -27.7°
Reaches altitude 10° 14:38:59 10° 315° (NW) 1,783 3.9 -28.3°
Enters shadow 14:40:20 18° 328° (NNW) 1,359 3.1 -28.7°
